Regional Weather Roundup
Issued by NWS New Orleans/Baton Rouge, LA

Home | Current Version | Previous Version | Text Only | Print | Product List | Glossary Off
Versions: 1 2 3 4 5 6 7 8 9 10 11 12 13 14 15 16 17 18 19 20 21 22 23 24 25 26 27 28 29 30 31 32 33 34 35 36 37 38 39 40 41 42 43 44 45 46 47 48 49 50

960
ASUS44 KLIX 282307
RWRLIX
NEW ORLEANS REGIONAL WEATHER ROUNDUP
NATIONAL WEATHER SERVICE NEW ORLEANS LA
600 PM CDT SAT MAR 28 2015

NOTE: "FAIR" INDICATES FEW OR NO CLOUDS BELOW 12,000 FEET WITH NO
      SIGNIFICANT WEATHER AND/OR OBSTRUCTIONS TO VISIBILITY.
      SKY/WX - SKY CONDITION AND SIGNIFICANT WEATHER.
      TMP - AIR TEMPERATURE.     DP    - DEWPOINT TEMPERATURE.
      RH  - RELATIVE HUMIDITY.   PRES  - PRESSURE.
      HI  - HEAT INDEX.          WCI   - WIND CHILL INDEX.

*  THESE STATIONS ARE NOT NWS OR FAA STATIONS AND ARE NOT UNDER
   NWS QUALITY CONTROL.

LAZ038-040-048-061>063-065>067-069-290000-
SOUTHEAST LOUISIANA

CITY           SKY/WX    TMP DP  RH WIND       PRES   REMARKS
N.O. AUDUBON     N/A     65  50  58 MISG        N/A
N.O. INTL ARPT MOSUNNY   66  46  48 S13       30.17R
N.O. LAKEFRONT SUNNY     66  44  45 SE14      30.18R
SLIDELL        SUNNY     65  43  44 S8        30.17R
BATON ROUGE    SUNNY     72  45  37 S12       30.13S
BOOTHVILLE     SUNNY     62  48  60 E9        30.21R
BELLE CHASSE   SUNNY     63  44  50 SE9       30.18R
BOGALUSA*        N/A     70  38  30 CALM      30.17S
GALLIANO*      CLEAR     66  49  54 SE5       30.20R
NEW ROADS*       N/A     73  46  38 SW6       30.12S
GONZALES*        N/A     70  51  49 CALM      30.15R
HAMMOND*       SUNNY     68  43  40 SE6       30.18S
HOUMA*         SUNNY     64  52  63 S13       30.18R
PORT FOURCHON* CLEAR     64  52  63 SE12      30.23R

$$

MSZ070-080>082-290000-
SOUTHERN MISSISSIPPI

CITY           SKY/WX    TMP DP  RH WIND       PRES   REMARKS
MCCOMB         SUNNY     67  43  41 S7        30.15S
GULFPORT       SUNNY     61  41  47 S7        30.18S
BILOXI         SUNNY     60  41  49 S6        30.18S
PASCAGOULA     SUNNY     60  42  51 S7        30.19S
STENNIS ARPT*  SUNNY     63  36  36 S3        30.19R

$$

COASTAL OBSERVATIONS
LAKE AND NEARSHORE STATIONS

STATION/POSITION TIME  TEMP    WIND        PRES    WAVE
                       AIR SEA DIR/SP/G            HT/PER
                 (UTC) (F)     (DEG/KT/KT) (MB)    (FT/S)
PASCAGOULA       2200   59     200/  7/ 10 1021.9
WAVELAND YACHT   2200   59 65  170/  8/ 11 1021.7
GRAND ISLE       2200   63 66  120/  6/ 10 1022.0
SOUTHWEST PASS   2200   70 53  100/  8/  9 1022.7
NEW CANAL        2200   67     120/  2/  4 1021.7
SHELL BEACH      2200   61 68  130/ 11/ 15 1021.9

OFFSHORE STATIONS

STATION/POSITION TIME  TEMP    WIND        PRES    WAVE
                       AIR SEA DIR/SP/G            HT/PER
                 (UTC) (F)     (DEG/KT/KT) (MB)    (FT/S)
64 S DAUPHIN ISL 2250   59 73   60/  6/ 10 1023.0    2/ 4

$$




USA.gov is the U.S. government's official web portal to all federal, state and local government web resources and services.